When you browse on this site, cookies collect data to enhance your experience and personalize the content and advertising you see.
Visit our Privacy Policy to learn more. By continuing to use the site, you agree to this use of cookies and data.
  • In United Kingdom
  • List of Countries
  • For 7 days
  • Water Temperature
  • Satellite Maps
  • Weather Map
  • Weather Widgets
  • user-avatar
    Login

    Hourly Weather Nahariyya

    Today, 21 May, Tuesday

    Time Temperature Precipitation Wind Pressure Humidity
    00:00 +23°C° 0 mm 2 mps 759 mmHg 64%
    01:00 +23°C° 0 mm 2 mps 759 mmHg 62%
    02:00 +23°C° 0 mm 1 mps 759 mmHg 63%
    03:00 +23°C° 0 mm 1 mps 759 mmHg 61%
    04:00 +23°C° 0 mm 1 mps 759 mmHg 60%
    05:00 +23°C° 0 mm 1 mps 760 mmHg 58%
    06:00 +25°C° 0 mm 1 mps 760 mmHg 53%
    07:00 +27°C° 0 mm 1 mps 760 mmHg 47%
    08:00 +29°C° 0 mm 1 mps 760 mmHg 43%
    09:00 +30°C° 0 mm 2 mps 760 mmHg 41%
    10:00 +31°C° 0 mm 3 mps 761 mmHg 38%
    11:00 +33°C° 0 mm 3 mps 761 mmHg 35%
    12:00 +33°C° 0 mm 3 mps 761 mmHg 36%
    13:00 +33°C° 0 mm 4 mps 760 mmHg 37%
    14:00 +33°C° 0 mm 4 mps 760 mmHg 37%
    15:00 +32°C° 0 mm 4 mps 760 mmHg 38%
    16:00 +31°C° 0 mm 3 mps 760 mmHg 40%
    17:00 +30°C° 0 mm 3 mps 760 mmHg 41%
    18:00 +28°C° 0 mm 3 mps 760 mmHg 45%
    19:00 +27°C° 0 mm 2 mps 760 mmHg 49%
    20:00 +26°C° 0 mm 2 mps 760 mmHg 53%
    21:00 +26°C° 0 mm 1 mps 760 mmHg 50%
    22:00 +26°C° 0 mm 1 mps 760 mmHg 47%
    23:00 +26°C° 0 mm 1 mps 761 mmHg 45%

    Tomorrow, 22 May, Wednesday

    Time Temperature Precipitation Wind Pressure Humidity
    00:00 +25°C° 0 mm 1 mps 760 mmHg 44%
    01:00 +25°C° 0 mm 2 mps 760 mmHg 43%
    02:00 +25°C° 0 mm 2 mps 760 mmHg 42%
    03:00 +25°C° 0 mm 1 mps 760 mmHg 41%
    04:00 +25°C° 0 mm 1 mps 760 mmHg 41%
    05:00 +23°C° 0 mm 0 mps 760 mmHg 40%
    06:00 +25°C° 0 mm 0 mps 760 mmHg 35%
    07:00 +28°C° 0 mm 0 mps 760 mmHg 31%
    08:00 +30°C° 0 mm 0 mps 760 mmHg 26%
    09:00 +33°C° 0 mm 1 mps 760 mmHg 25%
    10:00 +36°C° 0 mm 2 mps 760 mmHg 23%
    11:00 +37°C° 0 mm 3 mps 760 mmHg 21%
    12:00 +37°C° 0 mm 3 mps 760 mmHg 21%
    13:00 +37°C° 0 mm 3 mps 760 mmHg 22%
    14:00 +37°C° 0 mm 4 mps 760 mmHg 22%
    15:00 +36°C° 0 mm 3 mps 760 mmHg 25%
    16:00 +35°C° 0 mm 3 mps 759 mmHg 27%
    17:00 +34°C° 0 mm 3 mps 759 mmHg 30%
    18:00 +31°C° 0 mm 3 mps 759 mmHg 32%
    19:00 +30°C° 0 mm 3 mps 759 mmHg 33%
    20:00 +29°C° 0 mm 2 mps 760 mmHg 35%
    21:00 +28°C° 0 mm 2 mps 760 mmHg 33%
    22:00 +28°C° 0 mm 2 mps 760 mmHg 31%
    23:00 +28°C° 0 mm 2 mps 760 mmHg 29%

    Day after tomorrow, 23 May, Thursday

    Time Temperature Precipitation Wind Pressure Humidity
    00:00 +28°C° 0 mm 2 mps 759 mmHg 27%
    01:00 +28°C° 0 mm 2 mps 759 mmHg 26%
    02:00 +28°C° 0 mm 2 mps 759 mmHg 24%
    03:00 +28°C° 0 mm 2 mps 758 mmHg 24%
    04:00 +28°C° 0 mm 2 mps 758 mmHg 24%
    05:00 +28°C° 0 mm 2 mps 758 mmHg 24%
    06:00 +30°C° 0 mm 2 mps 758 mmHg 23%
    07:00 +34°C° 0 mm 2 mps 758 mmHg 21%
    08:00 +36°C° 0 mm 2 mps 758 mmHg 20%
    09:00 +38°C° 0 mm 2 mps 758 mmHg 18%
    10:00 +39°C° 0 mm 1 mps 758 mmHg 17%
    11:00 +41°C° 0 mm 1 mps 758 mmHg 16%
    12:00 +41°C° 0 mm 2 mps 757 mmHg 16%
    13:00 +42°C° 0 mm 3 mps 757 mmHg 16%
    14:00 +42°C° 0 mm 4 mps 757 mmHg 16%
    15:00 +41°C° 0 mm 4 mps 756 mmHg 19%
    16:00 +40°C° 0 mm 4 mps 756 mmHg 21%
    17:00 +37°C° 0 mm 4 mps 756 mmHg 24%
    18:00 +36°C° 0 mm 4 mps 756 mmHg 23%
    19:00 +35°C° 0 mm 4 mps 756 mmHg 23%
    20:00 +34°C° 0 mm 3 mps 756 mmHg 23%
    21:00 +34°C° 0 mm 3 mps 756 mmHg 21%
    22:00 +34°C° 0 mm 3 mps 756 mmHg 19%
    23:00 +34°C° 0 mm 3 mps 756 mmHg 18%

    24 May, Friday

    Time Temperature Precipitation Wind Pressure Humidity
    00:00 +33°C° 0 mm 4 mps 755 mmHg 18%
    01:00 +33°C° 0 mm 4 mps 755 mmHg 18%
    02:00 +33°C° 0 mm 4 mps 754 mmHg 19%
    03:00 +32°C° 0 mm 5 mps 754 mmHg 19%
    04:00 +32°C° 0 mm 5 mps 754 mmHg 20%
    05:00 +32°C° 0 mm 6 mps 754 mmHg 20%
    06:00 +35°C° 0 mm 6 mps 754 mmHg 19%
    07:00 +38°C° 0 mm 6 mps 754 mmHg 17%
    08:00 +40°C° 0 mm 6 mps 755 mmHg 16%
    09:00 +42°C° 0 mm 6 mps 755 mmHg 15%
    10:00 +43°C° 0 mm 5 mps 755 mmHg 14%
    11:00 +45°C° 0 mm 4 mps 754 mmHg 12%
    12:00 +46°C° 0 mm 5 mps 754 mmHg 12%
    13:00 +46°C° 0 mm 5 mps 754 mmHg 12%
    14:00 +46°C° 0 mm 5 mps 754 mmHg 12%
    15:00 +43°C° 0 mm 4 mps 753 mmHg 16%
    16:00 +41°C° 0 mm 4 mps 753 mmHg 20%
    17:00 +38°C° 0 mm 3 mps 753 mmHg 24%
    18:00 +37°C° 0 mm 3 mps 753 mmHg 23%
    19:00 +37°C° 0 mm 2 mps 753 mmHg 22%
    20:00 +35°C° 0 mm 1 mps 754 mmHg 21%
    21:00 +36°C° 0 mm 2 mps 754 mmHg 20%
    22:00 +35°C° 0 mm 3 mps 754 mmHg 19%
    23:00 +35°C° 0 mm 4 mps 754 mmHg 18%

    25 May, Saturday

    Time Temperature Precipitation Wind Pressure Humidity
    00:00 +34°C° 0 mm 4 mps 754 mmHg 21%
    01:00 +31°C° 0 mm 3 mps 754 mmHg 25%
    02:00 +30°C° 0 mm 3 mps 754 mmHg 29%
    03:00 +29°C° 0 mm 3 mps 755 mmHg 38%
    04:00 +27°C° 0 mm 2 mps 755 mmHg 48%
    05:00 +26°C° 0 mm 2 mps 756 mmHg 58%
    06:00 +27°C° 0 mm 2 mps 756 mmHg 58%
    07:00 +28°C° 0 mm 3 mps 757 mmHg 57%
    08:00 +29°C° 0 mm 3 mps 757 mmHg 57%
    09:00 +29°C° 0 mm 4 mps 757 mmHg 55%
    10:00 +30°C° 0 mm 4 mps 758 mmHg 53%
    11:00 +32°C° 0 mm 4 mps 758 mmHg 51%
    12:00 +32°C° 0 mm 4 mps 758 mmHg 52%
    13:00 +32°C° 0 mm 4 mps 757 mmHg 53%
    14:00 +32°C° 0 mm 4 mps 757 mmHg 54%
    15:00 +30°C° 0 mm 4 mps 757 mmHg 56%
    16:00 +29°C° 0 mm 4 mps 757 mmHg 57%
    17:00 +28°C° 0 mm 3 mps 757 mmHg 59%
    18:00 +27°C° 0 mm 3 mps 757 mmHg 64%
    19:00 +26°C° 0 mm 2 mps 758 mmHg 70%
    20:00 +25°C° 0 mm 1 mps 758 mmHg 75%
    21:00 +24°C° 0 mm 1 mps 758 mmHg 75%
    22:00 +24°C° 0 mm 1 mps 758 mmHg 75%
    23:00 +24°C° 0 mm 2 mps 758 mmHg 76%

    26 May, Sunday

    Time Temperature Precipitation Wind Pressure Humidity
    00:00 +23°C° 0 mm 2 mps 758 mmHg 77%
    01:00 +23°C° 0 mm 2 mps 758 mmHg 79%
    02:00 +21°C° 0 mm 2 mps 757 mmHg 80%
    03:00 +22°C° 0 mm 1 mps 758 mmHg 81%
    04:00 +22°C° 0 mm 1 mps 758 mmHg 82%
    05:00 +20°C° 0 mm 0 mps 758 mmHg 83%
    06:00 +23°C° 0 mm 1 mps 758 mmHg 72%
    07:00 +25°C° 0 mm 1 mps 758 mmHg 61%
    08:00 +26°C° 0 mm 1 mps 759 mmHg 51%
    09:00 +28°C° 0 mm 2 mps 758 mmHg 47%
    10:00 +29°C° 0 mm 3 mps 758 mmHg 43%
    11:00 +30°C° 0 mm 4 mps 758 mmHg 39%
    12:00 +30°C° 0 mm 4 mps 758 mmHg 40%
    13:00 +30°C° 0 mm 4 mps 757 mmHg 40%
    14:00 +30°C° 0 mm 5 mps 757 mmHg 41%
    15:00 +29°C° 0 mm 4 mps 757 mmHg 44%
    16:00 +29°C° 0 mm 4 mps 757 mmHg 48%
    17:00 +28°C° 0 mm 4 mps 756 mmHg 51%
    18:00 +26°C° 0 mm 3 mps 757 mmHg 60%
    19:00 +25°C° 0 mm 3 mps 757 mmHg 68%
    20:00 +22°C° 0 mm 3 mps 757 mmHg 76%
    21:00 +23°C° 0 mm 2 mps 757 mmHg 78%
    22:00 +23°C° 0 mm 2 mps 757 mmHg 80%
    23:00 +21°C° 0 mm 2 mps 757 mmHg 82%
    Show more